{"data":{"norad_id":63479,"intl_designator":"2025-070V","name":"STARLINK-33713","alt_names":[],"object_type":"PAYLOAD","status":"ACTIVE","operator":null,"country":"US","launch_date":"2025-04-06","launch_site_code":"AFETR","launch_vehicle":null,"mission":null,"orbit_class":"UNKNOWN","rcs_meters":null,"size_class":null,"mass_kg":null,"dimensions":null,"purposes":["comms"],"wikipedia_slug":null,"has_3d_model":false,"image_url":null,"decayed_at":null,"tle_current":{"epoch":"2026-09-20T07:26:24.714528Z","epoch_age_seconds":172811,"freshness":"STALE","line1":"1 63479U 25070V   26263.31000827  .00008954  00000+0  33453-3 0  9999","line2":"2 63479  43.0015 236.9797 0001096 254.1329 105.9402 15.27579624 82783","mean_motion":15.27579624,"eccentricity":0.0001096,"inclination_deg":43.0015,"raan_deg":236.9797,"arg_perigee_deg":254.1329,"mean_anomaly_deg":105.9402,"bstar":0.00033453,"rev_number":8278,"period_min":94.266771916565,"perigee_km":482.29823579963,"apogee_km":483.80220803867,"semimajor_km":6861.1872219191,"source":"CELESTRAK","updated_at":"2026-09-21T09:00:35.011167Z"}}}